When you browse on this site, cookies collect data to enhance your experience and personalize the content and advertising you see.
Visit our Privacy Policy to learn more. By continuing to use the site, you agree to this use of cookies and data.
EN

Hourly Weather Oruro

Today, 13 July, Monday

Time Temperature Precipitation Wind Pressure Humidity
00:00 0°C° 0 mm 0 mps 471 mmHg 21%
01:00 +1°C° 0 mm 1 mps 470 mmHg 22%
02:00 0°C° 0 mm 1 mps 470 mmHg 23%
03:00 0°C° 0 mm 1 mps 469 mmHg 24%
04:00 -1°C° 0 mm 1 mps 469 mmHg 26%
05:00 -2°C° 0 mm 1 mps 468 mmHg 27%
06:00 0°C° 0 mm 1 mps 470 mmHg 26%
07:00 +1°C° 0 mm 1 mps 471 mmHg 25%
08:00 +2°C° 0 mm 1 mps 473 mmHg 24%
09:00 +5°C° 0 mm 1 mps 475 mmHg 20%
10:00 +7°C° 0 mm 1 mps 476 mmHg 15%
11:00 +10°C° 0 mm 1 mps 478 mmHg 11%
12:00 +11°C° 0 mm 1 mps 479 mmHg 10%
13:00 +12°C° 0 mm 2 mps 479 mmHg 8%
14:00 +13°C° 0 mm 2 mps 479 mmHg 7%
15:00 +13°C° 0 mm 2 mps 479 mmHg 8%
16:00 +12°C° 0 mm 3 mps 479 mmHg 8%
17:00 +12°C° 0 mm 3 mps 478 mmHg 9%
18:00 +10°C° 0 mm 3 mps 477 mmHg 11%
19:00 +8°C° 0 mm 3 mps 476 mmHg 12%
20:00 +4°C° 0 mm 3 mps 475 mmHg 14%
21:00 +4°C° 0 mm 2 mps 474 mmHg 16%
22:00 +4°C° 0 mm 1 mps 474 mmHg 18%
23:00 +3°C° 0 mm 1 mps 473 mmHg 21%

Tomorrow, 14 July, Tuesday

Time Temperature Precipitation Wind Pressure Humidity
00:00 +3°C° 0 mm 1 mps 473 mmHg 24%
01:00 +2°C° 0 mm 1 mps 472 mmHg 28%
02:00 +2°C° 0 mm 1 mps 472 mmHg 32%
03:00 +1°C° 0 mm 1 mps 472 mmHg 39%
04:00 +1°C° 0 mm 1 mps 471 mmHg 47%
05:00 +1°C° 0 mm 1 mps 471 mmHg 54%
06:00 +1°C° 0 mm 1 mps 472 mmHg 59%
07:00 +1°C° 0 mm 2 mps 473 mmHg 63%
08:00 +2°C° 0 mm 2 mps 474 mmHg 68%
09:00 +4°C° 0 mm 2 mps 476 mmHg 57%
10:00 +7°C° 0 mm 2 mps 477 mmHg 47%
11:00 +9°C° 0 mm 2 mps 479 mmHg 36%
12:00 +10°C° 0 mm 3 mps 479 mmHg 32%
13:00 +11°C° 0 mm 3 mps 479 mmHg 27%
14:00 +13°C° 0 mm 4 mps 479 mmHg 22%
15:00 +13°C° 0 mm 4 mps 479 mmHg 21%
16:00 +13°C° 0 mm 4 mps 479 mmHg 20%
17:00 +13°C° 0 mm 4 mps 478 mmHg 19%
18:00 +11°C° 0 mm 3 mps 477 mmHg 22%
19:00 +9°C° 0 mm 3 mps 476 mmHg 26%
20:00 +7°C° 0 mm 2 mps 476 mmHg 29%
21:00 +6°C° 0 mm 2 mps 475 mmHg 33%
22:00 +5°C° 0 mm 2 mps 475 mmHg 37%
23:00 +4°C° 0 mm 2 mps 475 mmHg 40%

Day after tomorrow, 15 July, Wednesday

Time Temperature Precipitation Wind Pressure Humidity
00:00 +3°C° 0 mm 2 mps 474 mmHg 44%
01:00 +3°C° 0 mm 1 mps 473 mmHg 47%
02:00 +1°C° 0 mm 1 mps 472 mmHg 51%
03:00 +1°C° 0 mm 1 mps 472 mmHg 52%
04:00 0°C° 0 mm 0 mps 471 mmHg 53%
05:00 -1°C° 0 mm 0 mps 471 mmHg 54%
06:00 0°C° 0 mm 0 mps 472 mmHg 52%
07:00 +1°C° 0 mm 0 mps 473 mmHg 50%
08:00 +2°C° 0 mm 0 mps 474 mmHg 48%
09:00 +5°C° 0 mm 1 mps 475 mmHg 42%
10:00 +7°C° 0 mm 1 mps 477 mmHg 35%
11:00 +9°C° 0 mm 2 mps 478 mmHg 28%
12:00 +10°C° 0 mm 2 mps 478 mmHg 24%
13:00 +11°C° 0 mm 3 mps 478 mmHg 20%
14:00 +13°C° 0 mm 3 mps 479 mmHg 16%
15:00 +13°C° 0 mm 3 mps 478 mmHg 15%
16:00 +13°C° 0 mm 3 mps 478 mmHg 15%
17:00 +13°C° 0 mm 3 mps 478 mmHg 14%
18:00 +12°C° 0 mm 2 mps 477 mmHg 17%
19:00 +8°C° 0 mm 2 mps 476 mmHg 21%
20:00 +6°C° 0 mm 2 mps 475 mmHg 24%
21:00 +5°C° 0 mm 2 mps 474 mmHg 25%
22:00 +5°C° 0 mm 1 mps 474 mmHg 26%
23:00 +4°C° 0 mm 1 mps 474 mmHg 27%

16 July, Thursday

Time Temperature Precipitation Wind Pressure Humidity
00:00 +4°C° 0 mm 1 mps 473 mmHg 30%
01:00 +3°C° 0 mm 1 mps 473 mmHg 33%
02:00 +2°C° 0 mm 1 mps 472 mmHg 36%
03:00 +1°C° 0 mm 1 mps 472 mmHg 36%
04:00 +1°C° 0 mm 1 mps 471 mmHg 36%
05:00 0°C° 0 mm 1 mps 471 mmHg 35%
06:00 +1°C° 0 mm 1 mps 472 mmHg 35%
07:00 +2°C° 0 mm 1 mps 473 mmHg 34%
08:00 +2°C° 0 mm 0 mps 474 mmHg 34%
09:00 +5°C° 0 mm 1 mps 476 mmHg 27%
10:00 +8°C° 0 mm 1 mps 477 mmHg 21%
11:00 +10°C° 0 mm 1 mps 479 mmHg 15%
12:00 +12°C° 0 mm 1 mps 479 mmHg 13%
13:00 +13°C° 0 mm 1 mps 479 mmHg 12%
14:00 +14°C° 0 mm 1 mps 479 mmHg 10%
15:00 +14°C° 0 mm 1 mps 479 mmHg 10%
16:00 +14°C° 0 mm 1 mps 479 mmHg 10%
17:00 +14°C° 0 mm 2 mps 479 mmHg 10%
18:00 +12°C° 0 mm 1 mps 477 mmHg 14%
19:00 +9°C° 0 mm 1 mps 476 mmHg 18%
20:00 +7°C° 0 mm 1 mps 475 mmHg 22%
21:00 +6°C° 0 mm 1 mps 474 mmHg 25%
22:00 +5°C° 0 mm 1 mps 474 mmHg 28%
23:00 +4°C° 0 mm 0 mps 473 mmHg 31%

17 July, Friday

Time Temperature Precipitation Wind Pressure Humidity
00:00 +3°C° 0 mm 0 mps 473 mmHg 33%
01:00 +2°C° 0 mm 0 mps 472 mmHg 35%
02:00 +2°C° 0 mm 0 mps 472 mmHg 36%
03:00 +2°C° 0 mm 1 mps 471 mmHg 42%
04:00 +2°C° 0 mm 1 mps 471 mmHg 48%
05:00 +1°C° 0 mm 1 mps 471 mmHg 53%
06:00 +2°C° 0 mm 1 mps 472 mmHg 53%
07:00 +2°C° 0 mm 0 mps 473 mmHg 53%
08:00 +3°C° 0 mm 0 mps 474 mmHg 53%
09:00 +6°C° 0 mm 0 mps 476 mmHg 44%
10:00 +9°C° 0 mm 1 mps 477 mmHg 35%
11:00 +12°C° 0 mm 1 mps 479 mmHg 26%
12:00 +13°C° 0 mm 1 mps 479 mmHg 22%
13:00 +14°C° 0 mm 2 mps 479 mmHg 19%
14:00 +15°C° 0 mm 2 mps 480 mmHg 15%
15:00 +15°C° 0 mm 2 mps 479 mmHg 14%
16:00 +15°C° 0 mm 2 mps 479 mmHg 14%
17:00 +16°C° 0 mm 2 mps 479 mmHg 13%
18:00 +13°C° 0 mm 2 mps 477 mmHg 17%
19:00 +11°C° 0 mm 1 mps 476 mmHg 21%
20:00 +8°C° 0 mm 1 mps 475 mmHg 25%
21:00 +7°C° 0 mm 1 mps 474 mmHg 28%
22:00 +6°C° 0 mm 1 mps 474 mmHg 30%
23:00 +6°C° 0 mm 1 mps 474 mmHg 33%

18 July, Saturday

Time Temperature Precipitation Wind Pressure Humidity
00:00 +5°C° 0 mm 1 mps 473 mmHg 34%
01:00 +3°C° 0 mm 0 mps 472 mmHg 35%
02:00 +3°C° 0 mm 0 mps 472 mmHg 37%
03:00 +2°C° 0 mm 0 mps 471 mmHg 39%
04:00 +1°C° 0 mm 0 mps 471 mmHg 41%
05:00 +1°C° 0 mm 0 mps 470 mmHg 44%
06:00 +2°C° 0 mm 0 mps 471 mmHg 42%
07:00 +3°C° 0 mm 0 mps 473 mmHg 41%
08:00 +4°C° 0 mm 0 mps 474 mmHg 39%
09:00 +6°C° 0 mm 0 mps 475 mmHg 32%
10:00 +9°C° 0 mm 0 mps 477 mmHg 24%
11:00 +13°C° 0 mm 1 mps 479 mmHg 17%
12:00 +14°C° 0 mm 1 mps 479 mmHg 15%
13:00 +15°C° 0 mm 1 mps 479 mmHg 13%
14:00 +18°C° 0 mm 1 mps 480 mmHg 10%
15:00 +17°C° 0 mm 2 mps 479 mmHg 11%
16:00 +17°C° 0 mm 2 mps 479 mmHg 11%
17:00 +17°C° 0 mm 2 mps 479 mmHg 12%
18:00 +14°C° 0 mm 2 mps 478 mmHg 18%
19:00 +10°C° 0 mm 2 mps 476 mmHg 24%
20:00 +8°C° 0 mm 2 mps 475 mmHg 31%
21:00 +7°C° 0 mm 2 mps 475 mmHg 34%
22:00 +7°C° 0 mm 1 mps 474 mmHg 38%
23:00 +7°C° 0 mm 1 mps 474 mmHg 42%
Show more